Weather History for Ironwood, MI

Change the Weather History Date:

Sunday, February 17, 2013

  Actual Average Record
Temperature  
Mean Temperature 3 °F -  
Max Temperature 24 °F 26 °F 46 °F (2011)
Min Temperature -18 °F 9 °F -18 °F (2013)
Degree Days  
Heating Degree Days 62    
Moisture  
Dew Point -4 °F    
Average Humidity 59    
Maximum Humidity 100    
Minimum Humidity 40    
Precipitation  
Precipitation 0.00 in - - ()
Sea Level Pressure  
Sea Level Pressure 29.91 in    
Wind  
Wind Speed 4 mph (SSE)    
Max Wind Speed 16 mph    
Max Gust Speed 30 mph    
Visibility 10 miles    
Events      
Averages and records for this station are not official NWS values.
T = Trace of Precipitation, MM = Missing Value Source: NWS Daily Summary

Daily Weather History Graph

Daily Weather History Graph

Search for Another Location

Airport:

Trip Planner

Search our weather history database for the weather conditions in past years. The results will help you decide how hot, cold, wet, or windy it might be!

Date:

Astronomy

Feb. 17, 2013 Rise Set
Actual Time 7:00 AM CST 5:29 PM CST
Civil Twilight 6:29 AM CST 6:00 PM CST
Nautical Twilight 5:54 AM CST 6:35 PM CST
Astronomical Twilight 5:19 AM CST 7:10 PM CST
Moon 10:25 AM CST (2/17) 12:52 AM CST (2/17)
Length of Visible Light 11h 30m
Length of Day
10h 28m
Waxing Crescent, 49% of the Moon is Illuminated
Feb 17
Waxing Crescent
Feb 17
First Quarter
Feb 25
Full
Mar 4
Last Quarter
Mar 11
New

Hourly Weather History & Observations

Time (CST) Temp. Windchill Dew Point Humidity Pressure Visibility Wind Dir Wind Speed Gust Speed Precip Events Conditions
12:15 AM -16.6 °F - -27.4 °F 58% 30.08 in 10.0 mi Calm Calm - N/A   Clear
12:35 AM -16.6 °F - -25.6 °F 64% 30.08 in 10.0 mi Calm Calm - N/A   Clear
12:55 AM - - - N/A% - - North - - N/A   Unknown
1:15 AM - - - N/A% 30.07 in - Calm Calm - N/A   Unknown
1:35 AM -16.6 °F - -23.8 °F 70% 30.08 in 10.0 mi Calm Calm - N/A   Unknown
1:55 AM -16.6 °F - -23.8 °F 70% 30.08 in 10.0 mi Calm Calm - N/A   Clear
2:15 AM -18.4 °F - -23.8 °F 76% 30.08 in 10.0 mi Calm Calm - N/A   Clear
2:35 AM -18.4 °F - -23.8 °F 76% 30.08 in 10.0 mi Calm Calm - N/A   Clear
2:55 AM -18.4 °F - -20.2 °F 91% 30.07 in 10.0 mi Calm Calm - N/A   Clear
3:15 AM -18.4 °F - -27.4 °F 63% 30.07 in 10.0 mi Calm Calm - N/A   Clear
3:35 AM -18.4 °F - -27.4 °F 63% 30.07 in 10.0 mi Calm Calm - N/A   Clear
3:55 AM -18.4 °F - -25.6 °F 70% 30.06 in 10.0 mi Calm Calm - N/A   Clear
4:15 AM -18.4 °F - -23.8 °F 76% 30.06 in 10.0 mi Calm Calm - N/A   Clear
4:35 AM -18.4 °F - -25.6 °F 70% 30.06 in 10.0 mi Calm Calm - N/A   Clear
4:55 AM -16.6 °F - -16.6 °F 100% 30.05 in 9.0 mi Calm Calm - N/A   Clear
5:15 AM -18.4 °F -28.9 °F - N/A% 30.05 in 10.0 mi South 3.5 mph - N/A   Clear
5:35 AM -11.2 °F - -25.6 °F 49% 30.04 in 10.0 mi Calm Calm - N/A   Clear
5:55 AM -7.6 °F -16.5 °F -9.4 °F 92% 30.04 in 10.0 mi SSE 3.5 mph - N/A   Clear
6:15 AM -16.6 °F -26.8 °F - N/A% 30.03 in 10.0 mi SSE 3.5 mph - N/A   Clear
6:35 AM -18.4 °F - - N/A% 30.03 in 10.0 mi Calm Calm - N/A   Clear
6:55 AM -16.6 °F - -27.4 °F 58% 30.04 in 10.0 mi Calm Calm - N/A   Clear
7:15 AM -16.6 °F -26.8 °F -16.6 °F 100% 30.04 in 10.0 mi South 3.5 mph - N/A   Clear
7:35 AM -5.8 °F - -9.4 °F 84% 30.04 in 10.0 mi Calm Calm - N/A   Clear
7:55 AM -7.6 °F -18.8 °F -14.8 °F 71% 30.03 in 10.0 mi East 4.6 mph - N/A   Clear
8:15 AM -4.0 °F -12.4 °F -14.8 °F 60% 30.03 in 10.0 mi ESE 3.5 mph - N/A   Clear
8:35 AM 1.4 °F -11.3 °F -0.4 °F 92% 30.02 in 10.0 mi South 6.9 mph - N/A   Clear
8:55 AM 3.2 °F -9.1 °F 1.4 °F 92% 30.03 in 10.0 mi South 6.9 mph - N/A   Clear
9:15 AM 5.0 °F -8.1 °F -2.2 °F 72% 30.02 in 10.0 mi South 8.1 mph - N/A   Clear
12:35 PM 19.4 °F 9.5 °F 1.4 °F 46% 29.93 in 10.0 mi South 8.1 mph - N/A   Clear
12:55 PM 21.2 °F 12.6 °F 1.4 °F 42% 29.92 in 0.5 mi ESE 6.9 mph - N/A   Unknown
1:15 PM 21.2 °F 10.9 °F 1.4 °F 42% 29.91 in 10.0 mi SSE 9.2 mph - N/A   Clear
1:35 PM 23.0 °F 11.1 °F 3.2 °F 43% 29.90 in 3.0 mi SSE 12.7 mph 18.4 mph N/A   Clear
1:55 PM 23.0 °F 11.1 °F 3.2 °F 43% 29.89 in 10.0 mi SSE 12.7 mph 19.6 mph N/A   Clear
2:15 PM 24.8 °F 13.4 °F 3.2 °F 40% 29.88 in 10.0 mi SSE 12.7 mph 16.1 mph N/A   Clear
2:35 PM 24.8 °F 14.6 °F 3.2 °F 40% 29.87 in 10.0 mi SSE 10.4 mph 16.1 mph N/A   Clear
2:55 PM 24.8 °F 15.3 °F 5.0 °F 43% 29.86 in 10.0 mi SSE 9.2 mph 17.3 mph N/A   Partly Cloudy
3:15 PM 24.8 °F 14.6 °F 6.8 °F 46% 29.85 in 10.0 mi SE 10.4 mph - N/A   Mostly Cloudy
3:35 PM 24.8 °F 14.6 °F 6.8 °F 46% 29.84 in 10.0 mi South 10.4 mph 17.3 mph N/A   Overcast
3:55 PM 24.8 °F 13.4 °F 6.8 °F 46% 29.84 in 10.0 mi South 12.7 mph 17.3 mph N/A   Overcast
4:15 PM 24.8 °F 19.1 °F 6.8 °F 46% 29.84 in 10.0 mi SSE 4.6 mph - N/A   Overcast
4:35 PM 24.8 °F 16.9 °F 6.8 °F 46% 29.84 in 10.0 mi South 6.9 mph - N/A   Overcast
4:55 PM 24.8 °F 15.3 °F 6.8 °F 46% 29.83 in 10.0 mi SSE 9.2 mph 17.3 mph N/A   Overcast
5:15 PM 23.0 °F 13.9 °F 5.0 °F 46% 29.82 in 10.0 mi ESE 8.1 mph 16.1 mph N/A   Overcast
5:35 PM 21.2 °F 11.7 °F 5.0 °F 50% 29.82 in 10.0 mi SSE 8.1 mph 16.1 mph N/A   Overcast
5:55 PM 21.2 °F 10.1 °F 5.0 °F 50% 29.81 in 10.0 mi SSE 10.4 mph 20.7 mph N/A   Mostly Cloudy
6:15 PM 21.2 °F 10.9 °F 5.0 °F 50% 29.81 in 10.0 mi SSE 9.2 mph 17.3 mph N/A   Partly Cloudy
6:35 PM 21.2 °F 8.9 °F 5.0 °F 50% 29.80 in 10.0 mi SSE 12.7 mph - N/A   Mostly Cloudy
6:55 PM 21.2 °F 9.5 °F 5.0 °F 50% 29.79 in 10.0 mi SSE 11.5 mph 17.3 mph N/A   Partly Cloudy
7:15 PM 21.2 °F 8.3 °F 5.0 °F 50% 29.78 in 10.0 mi SE 13.8 mph 19.6 mph N/A   Scattered Clouds
7:35 PM 21.2 °F 10.1 °F 5.0 °F 50% 29.78 in 10.0 mi SSE 10.4 mph 18.4 mph N/A   Partly Cloudy
7:55 PM 21.2 °F 9.5 °F 5.0 °F 50% 29.77 in 10.0 mi SSE 11.5 mph - N/A   Partly Cloudy
8:15 PM 21.2 °F 12.6 °F 6.8 °F 54% 29.76 in 10.0 mi SSE 6.9 mph 20.7 mph N/A   Scattered Clouds
8:35 PM 21.2 °F 13.6 °F 6.8 °F 54% 29.75 in 10.0 mi SSE 5.8 mph - N/A   Partly Cloudy
8:55 PM 21.2 °F 11.7 °F 6.8 °F 54% 29.75 in 10.0 mi South 8.1 mph - N/A   Partly Cloudy
9:15 PM 21.2 °F 7.3 °F 6.8 °F 54% 29.73 in 10.0 mi SSE 16.1 mph 20.7 mph N/A   Partly Cloudy
9:35 PM 21.2 °F 7.3 °F 6.8 °F 54% 29.72 in 8.0 mi South 16.1 mph 27.6 mph N/A   Mostly Cloudy
9:55 PM 21.2 °F 7.3 °F 10.4 °F 63% 29.72 in 5.0 mi South 16.1 mph 28.8 mph N/A   Overcast
10:15 PM 21.2 °F 13.6 °F 8.6 °F 58% 29.73 in 9.0 mi South 5.8 mph 29.9 mph N/A   Mostly Cloudy
10:35 PM 21.2 °F 10.1 °F 6.8 °F 54% 29.75 in 10.0 mi SSW 10.4 mph 21.9 mph N/A   Mostly Cloudy
10:55 PM 21.2 °F 10.1 °F 6.8 °F 54% 29.74 in 10.0 mi South 10.4 mph 19.6 mph N/A   Scattered Clouds
11:15 PM 21.2 °F 8.3 °F 6.8 °F 54% 29.74 in 10.0 mi South 13.8 mph 18.4 mph N/A   Partly Cloudy
11:35 PM 21.2 °F 10.1 °F 6.8 °F 54% 29.74 in 10.0 mi SSE 10.4 mph 19.6 mph N/A   Mostly Cloudy
11:55 PM 19.4 °F 11.5 °F 6.8 °F 58% 29.73 in 10.0 mi South 5.8 mph 21.9 mph N/A   Overcast